[[{"header":{"parameterUnit":"m.s-1","parameterCategory":2,"la1":30.2991,"la2":30.254,"lo1":-89.0895,"lo2":-89.0444,"dy":0.0017,"dx":0.0017,"nx":28,"ny":28,"refTime":"2024-04-30T03:00:00:Z","depth":"0","parameterNumber":2,"parameterNumberName":"U-component_of_CURRENTS"},"data":[0,0,0,0,0,0,0,0,0,0,0,0,0,0,0,0,0,0,0,0,0,0,0,0,0,0,0,0,0,0,0,0,0,0,0,0,0,0,0,0,0,0,0,0,0,0,0,0,0,0,0,0,0,0,0,0,0,0,0.1,0.1,0,0.1027,0.1027,0.1028,0.1044,0.1044,0.1044,0.1044,0.1069,0.107,0.107,0,0,0,0,0,0,0,0,0,0,0,0,0,0.0991,0.0991,0.1,0.1,0.1001,0.1027,0.1027,0.1028,0.1044,0.1044,0.1044,0.1044,0.1069,0.107,0.107,0,0,0,0,0,0,0,0,0,0,0,0,0,0.1003,0.0991,0.1,0.1012,0.1014,0.1027,0.1027,0.1028,0.1044,0.1044,0.1044,0.1044,0.1069,0.1069,0.107,0.1071,0,0,0.1073,0.1073,0,0,0,0,0,0,0,0,0.1003,0.1004,0.101,0.1012,0.1013,0.1033,0.1033,0.1043,0.1044,0.1032,0.1044,0.1044,0.1057,0.1059,0.1063,0.1073,0.1074,0.1073,0.1073,0.1074,0.1074,0,0,0,0,0,0,0,0.1002,0.1003,0.101,0.1011,0.1013,0.1027,0.1028,0.1035,0.1043,0.1033,0.1034,0.1038,0.1058,0.1062,0.1063,0.1074,0.1073,0.1074,0.1074,0.1074,0.1137,0.1138,0,0,0,0,0,0,0.0998,0.1002,0.1009,0.1011,0.1009,0.1026,0.1028,0.1026,0.1043,0.1045,0.1038,0.1039,0.106,0.1062,0.1064,0.1126,0.1074,0.1074,0.1075,0.1136,0.1137,0.1139,0,0,0,0,0,0,0.0997,0.0998,0.1008,0.1008,0.101,0.1026,0.1024,0.1026,0.1035,0.1047,0.1049,0.1044,0.1061,0.1063,0.108,0.1125,0.1075,0.1076,0.1135,0.1136,0.1138,0.1212,0,0,0,0,0,0,0.0997,0.0997,0.0994,0.1007,0.101,0.1028,0.1024,0.1027,0.1037,0.1038,0.1052,0.1055,0.1061,0.1079,0.1081,0.1125,0.1076,0.1133,0.1135,0.1138,0.1208,0.1216,0.1223,0,0,0,0,0,0.0996,0.0999,0.0994,0.0995,0.1005,0.1028,0.1032,0.1043,0.1037,0.1049,0.1055,0.1054,0.1095,0.108,0.1082,0.1128,0.1132,0.1135,0.1137,0.1205,0.1215,0.1223,0,0,0,0,0,0,0.0994,0.1001,0.0996,0.1,0.1015,0.1032,0.1045,0.1044,0.1057,0.106,0.1061,0.1064,0.1099,0.1095,0.1078,0.1151,0.1117,0.112,0.1167,0.1177,0.1184,0.1219,0.1077,0,0,0,0,0,0.099,0.0995,0.1004,0.1009,0.1019,0.1028,0.1037,0.1046,0.1059,0.1065,0.1073,0.1087,0.1111,0.1126,0.1139,0.1173,0.1205,0.1205,0.1213,0.1219,0.1249,0.1316,0.1333,0.1147,0.1147,0.1147,0,0,0.0992,0.0996,0.0999,0.101,0.1023,0.1062,0.1035,0.1058,0.1097,0.1065,0.1113,0.1108,0.1122,0.1167,0.1183,0.1171,0.1291,0.1223,0.1228,0.1255,0.1321,0.1339,0.1356,0.1149,0.1149,0.1149,0,0,0.1024,0.1003,0.1032,0.1049,0.1072,0.1081,0.1088,0.1107,0.1122,0.1155,0.1151,0.1172,0.1196,0.1229,0.1246,0.1299,0.1322,0.1298,0.1376,0.144,0.1457,0.1472,0.1552,0.1573,0.131,0.131,0.131,0,0.103,0.1062,0.1045,0.1087,0.1113,0.1095,0.1148,0.1163,0.1185,0.1212,0.1183,0.1243,0.1239,0.1322,0.134,0.1322,0.1363,0.1342,0.1453,0.1468,0.1482,0.156,0.1583,0.1314,0.1313,0.1313,0.1313,0,0.11,0.1124,0.1145,0.1192,0.1214,0.1251,0.1271,0.1294,0.1296,0.1315,0.1373,0.1366,0.1411,0.1408,0.1392,0.1493,0.1492,0.1449,0.1435,0.1506,0.1583,0.1606,0.1319,0.1318,0.1317,0.1316,0,0,0.1135,0.1184,0.1197,0.1229,0.1272,0.1297,0.1362,0.142,0.1471,0.1481,0.1559,0.1581,0.1568,0.1586,0.1567,0.1615,0.1737,0.158,0.1582,0.1671,0.1905,0.1904,0.1928,0.1713,0.1716,0.172,0.1925,0,0.1205,0.1289,0.1303,0.1388,0.1433,0.1442,0.1506,0.1551,0.1575,0.1638,0.1648,0.1701,0.1641,0.1661,0.1705,0.1721,0.1797,0.1687,0.1815,0.182,0.1818,0.1954,0.1918,0.2098,0.1947,0.195,0.1953,0,0.1288,0.1329,0.1423,0.1484,0.1507,0.1559,0.1645,0.1698,0.1776,0.1795,0.185,0.1849,0.1931,0.185,0.1969,0.1902,0.1929,0.1935,0.1943,0.1936,0.1861,0.1999,0.2144,0.2106,0.1987,0.1985,0.1982,0,0.133,0.1414,0.1485,0.151,0.1583,0.1634,0.1677,0.1755,0.1805,0.1902,0.1947,0.2026,0.207,0.2119,0.2128,0.2066,0.2254,0.2167,0.2209,0.2209,0.2204,0.2197,0.2338,0.2287,0.2287,0.2286,0.2285,0,0.1399,0.1454,0.1508,0.1548,0.1627,0.1677,0.1768,0.1818,0.1914,0.1978,0.2029,0.2098,0.2136,0.2223,0.2222,0.2309,0.2345,0.228,0.228,0.2228,0.2221,0.2202,0.2148,0.2294,0.2292,0.229,0.2289,0,0.1432,0.1474,0.1544,0.1623,0.1645,0.1703,0.1789,0.1853,0.1949,0.204,0.2078,0.2195,0.2311,0.2362,0.2458,0.2439,0.2455,0.2524,0.247,0.246,0.2425,0.2375,0.2406,0.2328,0.2622,0.2624,0.2625,0,0.1453,0.1497,0.1569,0.1595,0.1629,0.1707,0.1756,0.1854,0.192,0.2081,0.2133,0.2292,0.2383,0.2566,0.2589,0.2673,0.254,0.2667,0.2534,0.2481,0.2426,0.2263,0.2181,0.2569,0.257,0.257,0.2571,0,0.1476,0.1502,0.1542,0.159,0.164,0.1686,0.1769,0.1822,0.1942,0.2036,0.2171,0.2273,0.2479,0.2567,0.2695,0.2712,0.2552,0.2679,0.2648,0.2443,0.2256,0.216,0.2379,0.2575,0.2575,0.2575,0.2574,0.2574,0.1467,0.1487,0.1526,0.1567,0.161,0.1645,0.1668,0.1766,0.1857,0.1981,0.2126,0.2266,0.2483,0.2666,0.2675,0.2702,0.2594,0.2637,0.2602,0.2458,0.2317,0.2559,0.2721,0.2721,0.2721,0.2721,0.2722,0,0.1443,0.1458,0.1494,0.1525,0.1538,0.1583,0.1652,0.1671,0.1742,0.1907,0.2028,0.2276,0.2431,0.2573,0.2709,0.2654,0.2475,0.2586,0.2363,0.2298,0.2574,0.2505,0.2599,0.2599,0.2599,0.2599,0.2599,0.2599,0.1426,0.1434,0.1449,0.1437,0.1455,0.145,0.147,0.1517,0.1622,0.1776,0.1934,0.2094,0.2409,0.2634,0.2675,0.2608,0.2388,0.2303,0.2234,0.2459,0.2459,0.246,0.2385,0.2452,0.2452,0.1874,0.187,0.1867]},{"header":{"parameterUnit":"m.s-1","parameterCategory":2,"la1":30.2991,"la2":30.254,"lo1":-89.0895,"lo2":-89.0444,"dy":0.0017,"dx":0.0017,"nx":28,"ny":28,"refTime":"2024-04-30T03:00:00:Z","depth":"0","parameterNumber":3,"parameterNumberName":"V-component_of_CURRENTS"},"data":[0,0,0,0,0,0,0,0,0,0,0,0,0,0,0,0,0,0,0,0,0,0,0,0,0,0,0,0,0,0,0,0,0,0,0,0,0,0,0,0,0,0,0,0,0,0,0,0,0,0,0,0,0,0,0,0,0,0,-0.0413,-0.0414,0,-0.0428,-0.0429,-0.0429,-0.0432,-0.0432,-0.0432,-0.0432,-0.0442,-0.0442,-0.0442,0,0,0,0,0,0,0,0,0,0,0,0,0,-0.0363,-0.0364,-0.0413,-0.0414,-0.0414,-0.0428,-0.0429,-0.0429,-0.0432,-0.0432,-0.0432,-0.0432,-0.0442,-0.0442,-0.0442,0,0,0,0,0,0,0,0,0,0,0,0,0,-0.0381,-0.0364,-0.0413,-0.0418,-0.0418,-0.0428,-0.0429,-0.0429,-0.0432,-0.0432,-0.0432,-0.0432,-0.0441,-0.0442,-0.0442,-0.0447,0,0,-0.0444,-0.0444,0,0,0,0,0,0,0,0,-0.038,-0.0383,-0.0417,-0.0417,-0.0418,-0.0429,-0.0414,-0.0435,-0.0432,-0.0426,-0.0432,-0.0432,-0.0437,-0.0438,-0.044,-0.0447,-0.0448,-0.0444,-0.0444,-0.0444,-0.0444,0,0,0,0,0,0,0,-0.0379,-0.0382,-0.0419,-0.0417,-0.0418,-0.041,-0.0413,-0.0418,-0.0432,-0.0427,-0.0427,-0.043,-0.0437,-0.044,-0.0441,-0.0448,-0.0444,-0.0444,-0.0445,-0.0445,-0.0456,-0.0456,0,0,0,0,0,0,-0.038,-0.0382,-0.0418,-0.0419,-0.0399,-0.0411,-0.0414,-0.0425,-0.0432,-0.0433,-0.043,-0.043,-0.0439,-0.044,-0.0441,-0.0435,-0.0444,-0.0445,-0.0445,-0.0456,-0.0456,-0.0456,0,0,0,0,0,0,-0.0379,-0.0383,-0.0418,-0.04,-0.0404,-0.0413,-0.0424,-0.0425,-0.0428,-0.0434,-0.0435,-0.0431,-0.0439,-0.044,-0.0446,-0.0436,-0.0445,-0.0445,-0.0456,-0.0456,-0.0456,-0.043,0,0,0,0,0,0,-0.0377,-0.0383,-0.039,-0.0401,-0.0405,-0.0415,-0.0424,-0.0426,-0.043,-0.043,-0.0435,-0.0436,-0.0439,-0.0445,-0.0446,-0.0436,-0.0446,-0.0456,-0.0456,-0.0456,-0.0431,-0.0429,-0.0427,0,0,0,0,0,-0.0376,-0.038,-0.0391,-0.0395,-0.0416,-0.0415,-0.0416,-0.0421,-0.043,-0.0424,-0.0435,-0.0436,-0.0446,-0.0445,-0.0447,-0.0437,-0.0456,-0.0456,-0.0456,-0.0431,-0.0429,-0.0427,0,0,0,0,0,0,-0.036,-0.0381,-0.0393,-0.0404,-0.0407,-0.0415,-0.0412,-0.0421,-0.0426,-0.0428,-0.0438,-0.0439,-0.044,-0.0446,-0.0445,-0.0442,-0.045,-0.0451,-0.0431,-0.0429,-0.0428,-0.0406,-0.0446,0,0,0,0,0,-0.0362,-0.0371,-0.0386,-0.0393,-0.0395,-0.0406,-0.0408,-0.0412,-0.0419,-0.0421,-0.0426,-0.0435,-0.0442,-0.0441,-0.0448,-0.0445,-0.0451,-0.0441,-0.0439,-0.0437,-0.0421,-0.0444,-0.0443,-0.0456,-0.0456,-0.0456,0,0,-0.0359,-0.037,-0.0377,-0.039,-0.0395,-0.0381,-0.0406,-0.0405,-0.0395,-0.0422,-0.041,-0.043,-0.0442,-0.044,-0.044,-0.0441,-0.0435,-0.0438,-0.0436,-0.042,-0.0444,-0.0443,-0.0441,-0.0456,-0.0456,-0.0456,0,0,-0.0333,-0.0366,-0.0352,-0.0354,-0.0359,-0.0367,-0.0366,-0.0374,-0.0379,-0.0379,-0.0397,-0.0413,-0.0417,-0.0424,-0.0429,-0.0423,-0.043,-0.0426,-0.0394,-0.0417,-0.0416,-0.0415,-0.0411,-0.041,-0.0421,-0.0421,-0.0421,0,-0.0323,-0.0313,-0.0346,-0.0325,-0.032,-0.0357,-0.0329,-0.0342,-0.035,-0.0351,-0.0369,-0.0388,-0.0407,-0.0403,-0.0404,-0.0418,-0.0424,-0.04,-0.0414,-0.0413,-0.0413,-0.0409,-0.0409,-0.042,-0.042,-0.042,-0.042,0,-0.0278,-0.027,-0.0261,-0.0251,-0.0253,-0.0239,-0.0259,-0.0263,-0.0283,-0.0296,-0.0306,-0.0341,-0.0348,-0.0364,-0.0382,-0.0384,-0.0386,-0.0413,-0.0416,-0.041,-0.0407,-0.0406,-0.0418,-0.0418,-0.0419,-0.0419,0,0,-0.0245,-0.023,-0.0224,-0.0201,-0.0212,-0.0202,-0.0199,-0.0198,-0.0186,-0.0222,-0.0207,-0.0249,-0.0279,-0.0287,-0.032,-0.0344,-0.0355,-0.0372,-0.0374,-0.0362,-0.0383,-0.0366,-0.0364,-0.0388,-0.0388,-0.0388,-0.0379,0,-0.019,-0.0133,-0.0147,-0.0095,-0.0066,-0.0102,-0.009,-0.0103,-0.0125,-0.0125,-0.0184,-0.0187,-0.0247,-0.0252,-0.0288,-0.0335,-0.0353,-0.0353,-0.0396,-0.0396,-0.0378,-0.0364,-0.0341,-0.033,-0.0379,-0.0379,-0.0379,0,-0.0129,-0.0098,-0.0037,-0.0005,0.0003,0.0018,0.0028,0.0036,0.0008,-0.0014,-0.0048,-0.009,-0.0128,-0.0186,-0.0259,-0.0256,-0.0311,-0.0356,-0.0357,-0.0347,-0.0378,-0.0347,-0.0328,-0.0465,-0.0378,-0.0378,-0.0378,0,-0.0067,-0.0018,0.0034,0.0043,0.0066,0.008,0.0088,0.0072,0.0093,0.0057,0.0064,-0.0002,-0.0018,-0.0109,-0.0205,-0.0232,-0.028,-0.0332,-0.0364,-0.0363,-0.0352,-0.0349,-0.0463,-0.038,-0.038,-0.038,-0.038,0,0.0002,0.0049,0.0066,0.0098,0.0156,0.0144,0.0194,0.0183,0.0188,0.0226,0.0129,0.0149,-0.0001,-0.005,-0.0161,-0.0243,-0.0246,-0.0342,-0.0359,-0.0341,-0.0338,-0.0464,-0.0542,-0.038,-0.038,-0.038,-0.038,0,0.0067,0.008,0.0146,0.0179,0.019,0.0231,0.027,0.0312,0.0293,0.034,0.0337,0.0277,0.0212,0.0075,-0.0052,-0.0162,-0.0329,-0.0291,-0.0244,-0.0256,-0.0427,-0.0503,-0.0605,-0.0676,-0.0327,-0.0326,-0.0326,0,0.011,0.0149,0.0205,0.0247,0.0264,0.0314,0.0357,0.0361,0.0409,0.043,0.0471,0.0425,0.0416,0.0241,0.0035,-0.0135,-0.0286,-0.0235,-0.0296,-0.0417,-0.0516,-0.058,-0.0639,-0.0269,-0.0268,-0.0267,-0.0267,0,0.0191,0.0203,0.0253,0.0335,0.0389,0.0453,0.0513,0.0569,0.0588,0.0628,0.0696,0.07,0.0533,0.0378,0.0129,-0.0011,-0.0331,-0.0226,-0.0376,-0.049,-0.0542,-0.0624,-0.0281,-0.026,-0.0261,-0.0261,-0.0262,-0.0262,0.0247,0.0294,0.0354,0.0433,0.05,0.0591,0.0659,0.0731,0.0823,0.0913,0.0894,0.0938,0.0686,0.0354,0.013,-0.0259,-0.0289,-0.0384,-0.0465,-0.0517,-0.0595,-0.0219,-0.0209,-0.021,-0.021,-0.021,-0.021,0,0.0321,0.0371,0.0452,0.0547,0.0636,0.065,0.0768,0.0846,0.0971,0.1071,0.1138,0.1078,0.0748,0.0385,-0.0132,-0.0437,-0.0583,-0.0612,-0.0721,-0.0772,-0.0452,-0.046,-0.0474,-0.0474,-0.0474,-0.0474,-0.0474,-0.0474,0.0365,0.0455,0.0493,0.0647,0.0715,0.0838,0.0913,0.103,0.1131,0.1284,0.1351,0.1376,0.1136,0.0159,-0.0531,-0.0709,-0.0943,-0.0979,-0.1116,-0.0922,-0.0909,-0.0895,-0.0923,-0.1035,-0.1036,-0.1404,-0.1407,-0.141]}],[{"header":{"parameterUnit":"m.s-1","parameterCategory":2,"la1":30.2991,"la2":30.254,"lo1":-89.0895,"lo2":-89.0444,"dy":0.0017,"dx":0.0017,"nx":28,"ny":28,"refTime":"2024-04-30T03:00:00:Z","depth":"2","parameterNumber":2,"parameterNumberName":"U-component_of_CURRENTS"},"data":[0,0,0,0,0,0,0,0,0,0,0,0,0,0,0,0,0,0,0,0,0,0,0,0,0,0,0,0,0,0,0,0,0,0,0,0,0,0,0,0,0,0,0,0,0,0,0,0,0,0,0,0,0,0,0,0,0,0,0.1109,0.1109,0,0.1134,0.1134,0.1134,0.1144,0.1144,0.1144,0.1144,0.1167,0.1168,0.1168,0,0,0,0,0,0,0,0,0,0,0,0,0,0.11,0.11,0.1109,0.1109,0.1109,0.1134,0.1134,0.1134,0.1144,0.1144,0.1144,0.1144,0.1167,0.1168,0.1168,0,0,0,0,0,0,0,0,0,0,0,0,0,0.1112,0.11,0.1109,0.1117,0.1119,0.1134,0.1134,0.1134,0.1144,0.1144,0.1144,0.1144,0.1167,0.1167,0.1168,0.1176,0,0,0.1171,0.1172,0,0,0,0,0,0,0,0,0.1111,0.1112,0.1116,0.1117,0.1118,0.1136,0.1139,0.1148,0.1144,0.1134,0.1144,0.1144,0.1157,0.1158,0.1163,0.1177,0.1178,0.1171,0.1172,0.1172,0.1173,0,0,0,0,0,0,0,0.111,0.1111,0.1118,0.1116,0.1118,0.1131,0.1132,0.1141,0.1145,0.1135,0.1136,0.1139,0.1157,0.1162,0.1163,0.1178,0.1171,0.1172,0.1173,0.1173,0.1251,0.1252,0,0,0,0,0,0,0.1106,0.111,0.1118,0.1119,0.1115,0.1131,0.1132,0.113,0.1145,0.1147,0.1139,0.1139,0.116,0.1162,0.1164,0.1227,0.1172,0.1173,0.1174,0.1249,0.1251,0.1252,0,0,0,0,0,0,0.1106,0.1106,0.1117,0.1116,0.1118,0.1131,0.1128,0.1131,0.1136,0.1148,0.115,0.1143,0.116,0.1163,0.1182,0.1226,0.1174,0.1175,0.1247,0.125,0.1252,0.1318,0,0,0,0,0,0,0.1105,0.1106,0.1102,0.1115,0.1118,0.1136,0.1129,0.1131,0.1139,0.1139,0.1152,0.1154,0.116,0.1181,0.1183,0.1226,0.1175,0.1246,0.1248,0.1251,0.1314,0.1322,0.1329,0,0,0,0,0,0.1105,0.1107,0.1102,0.1103,0.1112,0.1137,0.114,0.1148,0.1139,0.1151,0.1157,0.1154,0.12,0.1182,0.1185,0.1229,0.1244,0.1248,0.1251,0.131,0.132,0.1329,0,0,0,0,0,0,0.11,0.1108,0.1103,0.1106,0.1122,0.1139,0.115,0.1148,0.1161,0.1162,0.1163,0.1167,0.1203,0.1201,0.1181,0.126,0.1226,0.123,0.127,0.128,0.1287,0.132,0.1176,0,0,0,0,0,0.1096,0.1101,0.1112,0.1115,0.1124,0.1134,0.1142,0.115,0.1163,0.1168,0.1177,0.1192,0.1219,0.1235,0.1251,0.1287,0.1316,0.132,0.1327,0.1334,0.1363,0.143,0.1447,0.1263,0.1263,0.1263,0,0,0.1095,0.11,0.1102,0.1115,0.1128,0.1167,0.1139,0.1161,0.12,0.1169,0.1216,0.1213,0.1231,0.1279,0.1296,0.1284,0.1403,0.1338,0.1344,0.1369,0.1435,0.1453,0.1469,0.1266,0.1265,0.1265,0,0,0.1123,0.1102,0.1131,0.115,0.1173,0.1183,0.1189,0.1209,0.1223,0.1259,0.1255,0.1279,0.1307,0.1341,0.136,0.1418,0.1435,0.1418,0.1493,0.1558,0.1574,0.1588,0.1658,0.1678,0.1429,0.143,0.143,0,0.1127,0.116,0.1144,0.1187,0.1213,0.1196,0.1249,0.1264,0.1288,0.1315,0.1286,0.1352,0.135,0.1435,0.1455,0.144,0.1477,0.1455,0.157,0.1585,0.1599,0.1666,0.1687,0.1433,0.1433,0.1432,0.1432,0,0.1194,0.1219,0.1239,0.1288,0.1311,0.1347,0.137,0.1393,0.1394,0.1415,0.1476,0.1472,0.1521,0.1519,0.1505,0.1607,0.1603,0.1565,0.1549,0.1621,0.1687,0.1709,0.1438,0.1437,0.1436,0.1435,0,0,0.1224,0.1276,0.1289,0.1322,0.1367,0.1393,0.1458,0.1518,0.1568,0.158,0.1658,0.1685,0.1673,0.1694,0.1678,0.1725,0.184,0.1692,0.1693,0.1767,0.1999,0.1925,0.1941,0.1821,0.1825,0.1828,0.2009,0,0.1292,0.1377,0.1394,0.148,0.1524,0.1535,0.1599,0.1645,0.1672,0.1736,0.1748,0.1803,0.1745,0.1765,0.181,0.1826,0.1898,0.1795,0.1914,0.1919,0.1848,0.1964,0.1807,0.1948,0.203,0.2033,0.2036,0,0.1375,0.1415,0.1507,0.1572,0.1595,0.1647,0.1735,0.1788,0.1868,0.1892,0.1949,0.1948,0.2027,0.195,0.2064,0.2001,0.2024,0.203,0.2036,0.1963,0.1884,0.1887,0.1984,0.2071,0.2068,0.2066,0.2064,0,0.1411,0.1499,0.1567,0.1594,0.1668,0.1719,0.1762,0.1842,0.1886,0.1995,0.2031,0.2121,0.2158,0.2209,0.219,0.2155,0.2296,0.2251,0.2222,0.2217,0.2107,0.2085,0.2366,0.2365,0.2365,0.2365,0.2364,0,0.1479,0.1533,0.1588,0.1626,0.1698,0.1755,0.1843,0.1897,0.199,0.204,0.2107,0.2153,0.2222,0.2275,0.2273,0.2309,0.2374,0.2281,0.2273,0.2123,0.2102,0.2212,0.2192,0.2371,0.237,0.2369,0.2367,0,0.1501,0.1549,0.1615,0.1694,0.1713,0.1765,0.1846,0.19,0.2002,0.2073,0.2108,0.2219,0.2302,0.2344,0.2435,0.2407,0.2445,0.2437,0.2255,0.2222,0.2319,0.23,0.2491,0.249,0.2489,0.2489,0.2488,0,0.1516,0.1553,0.1623,0.164,0.1672,0.1744,0.1778,0.1886,0.1935,0.2076,0.2101,0.2232,0.2283,0.2408,0.2414,0.2469,0.2457,0.233,0.2235,0.2366,0.234,0.2322,0.2304,0.2131,0.2127,0.2125,0.2123,0,0.151,0.1535,0.1567,0.1602,0.164,0.1681,0.1744,0.1782,0.19,0.1976,0.2071,0.2141,0.2277,0.2274,0.2339,0.2325,0.231,0.2276,0.2498,0.2096,0.2034,0.2004,0.1998,0.2098,0.2101,0.2102,0.2104,0.2105,0.147,0.148,0.151,0.1541,0.1574,0.1602,0.1619,0.169,0.1762,0.1848,0.1961,0.2021,0.2106,0.2146,0.2098,0.2076,0.2232,0.2136,0.2143,0.2153,0.2051,0.1988,0.2027,0.2029,0.2031,0.2032,0.2033,0,0.1406,0.142,0.1437,0.147,0.1474,0.1526,0.1571,0.1581,0.1627,0.173,0.1812,0.1738,0.1778,0.1837,0.1794,0.1821,0.1781,0.1729,0.1665,0.1694,0.1718,0.1589,0.1446,0.1444,0.1441,0.1439,0,0,0.1373,0.1359,0.1374,0.136,0.1381,0.1375,0.1389,0.1413,0.1477,0.1501,0.1536,0.1699,0.1808,0.1596,0.1598,0.1512,0.1576,0.1454,0.1938,0.1893,0.1913,0.1983,0.1822,0,0,0,0,0]},{"header":{"parameterUnit":"m.s-1","parameterCategory":2,"la1":30.2991,"la2":30.254,"lo1":-89.0895,"lo2":-89.0444,"dy":0.0017,"dx":0.0017,"nx":28,"ny":28,"refTime":"2024-04-30T03:00:00:Z","depth":"2","parameterNumber":3,"parameterNumberName":"V-component_of_CURRENTS"},"data":[0,0,0,0,0,0,0,0,0,0,0,0,0,0,0,0,0,0,0,0,0,0,0,0,0,0,0,0,0,0,0,0,0,0,0,0,0,0,0,0,0,0,0,0,0,0,0,0,0,0,0,0,0,0,0,0,0,0,-0.0402,-0.0402,0,-0.0424,-0.0424,-0.0424,-0.0446,-0.0446,-0.0447,-0.0447,-0.0471,-0.0472,-0.0472,0,0,0,0,0,0,0,0,0,0,0,0,0,-0.0363,-0.0363,-0.0402,-0.0402,-0.0403,-0.0423,-0.0424,-0.0424,-0.0446,-0.0446,-0.0447,-0.0447,-0.0471,-0.0471,-0.0472,0,0,0,0,0,0,0,0,0,0,0,0,0,-0.0381,-0.0363,-0.0402,-0.0417,-0.0418,-0.0423,-0.0424,-0.0424,-0.0446,-0.0446,-0.0447,-0.0447,-0.0471,-0.0471,-0.0472,-0.0464,0,0,-0.0473,-0.0473,0,0,0,0,0,0,0,0,-0.038,-0.0382,-0.0414,-0.0416,-0.0417,-0.0433,-0.0419,-0.0438,-0.0446,-0.0435,-0.0447,-0.0448,-0.0459,-0.046,-0.0462,-0.0465,-0.0466,-0.0473,-0.0474,-0.0474,-0.0474,0,0,0,0,0,0,0,-0.0379,-0.0381,-0.041,-0.0414,-0.0416,-0.0416,-0.042,-0.0422,-0.0443,-0.0436,-0.0437,-0.0441,-0.046,-0.0462,-0.0463,-0.0466,-0.0473,-0.0474,-0.0474,-0.0474,-0.0476,-0.0476,0,0,0,0,0,0,-0.0378,-0.038,-0.0409,-0.0411,-0.04,-0.0417,-0.042,-0.0427,-0.0443,-0.0446,-0.044,-0.0442,-0.0461,-0.0462,-0.0464,-0.0462,-0.0474,-0.0474,-0.0474,-0.0477,-0.0476,-0.0476,0,0,0,0,0,0,-0.0377,-0.038,-0.0408,-0.0396,-0.04,-0.0417,-0.0424,-0.0427,-0.0435,-0.0446,-0.045,-0.0446,-0.0461,-0.0463,-0.0471,-0.0463,-0.0474,-0.0475,-0.0477,-0.0476,-0.0476,-0.0454,0,0,0,0,0,0,-0.0376,-0.038,-0.0386,-0.0396,-0.0401,-0.0406,-0.0424,-0.0427,-0.0436,-0.0438,-0.0452,-0.0455,-0.0462,-0.047,-0.0471,-0.0464,-0.0475,-0.0477,-0.0477,-0.0476,-0.0455,-0.0453,-0.0452,0,0,0,0,0,-0.0374,-0.0375,-0.0387,-0.039,-0.0409,-0.0406,-0.0407,-0.0421,-0.0436,-0.0432,-0.0448,-0.0455,-0.0468,-0.047,-0.0471,-0.0464,-0.0477,-0.0477,-0.0476,-0.0456,-0.0454,-0.0452,0,0,0,0,0,0,-0.0363,-0.0378,-0.0391,-0.0398,-0.0401,-0.041,-0.0411,-0.0422,-0.0431,-0.0439,-0.0453,-0.0456,-0.046,-0.0465,-0.0467,-0.0464,-0.0473,-0.0473,-0.0457,-0.0455,-0.0453,-0.0434,-0.0476,0,0,0,0,0,-0.0364,-0.0369,-0.0381,-0.0387,-0.0388,-0.0402,-0.0405,-0.0413,-0.0423,-0.0428,-0.0438,-0.045,-0.0457,-0.0459,-0.0466,-0.0463,-0.0468,-0.0459,-0.0457,-0.0455,-0.0441,-0.0463,-0.0462,-0.0474,-0.0474,-0.0474,0,0,-0.0363,-0.0371,-0.0376,-0.0384,-0.0391,-0.0378,-0.0405,-0.0407,-0.0399,-0.0429,-0.0425,-0.0445,-0.0457,-0.0456,-0.0457,-0.0459,-0.0452,-0.0455,-0.0453,-0.0439,-0.0462,-0.0461,-0.046,-0.0474,-0.0474,-0.0474,0,0,-0.0341,-0.0369,-0.0356,-0.0357,-0.0363,-0.0369,-0.037,-0.0378,-0.0387,-0.0388,-0.041,-0.0426,-0.0431,-0.044,-0.0445,-0.0435,-0.0445,-0.0438,-0.0408,-0.0431,-0.043,-0.0429,-0.0424,-0.0423,-0.0433,-0.0433,-0.0433,0,-0.0337,-0.0323,-0.035,-0.0331,-0.0327,-0.0362,-0.0336,-0.0349,-0.036,-0.0361,-0.0383,-0.0401,-0.0421,-0.0418,-0.0419,-0.043,-0.0436,-0.0417,-0.0428,-0.0428,-0.0427,-0.0422,-0.0421,-0.0432,-0.0432,-0.0432,-0.0432,0,-0.0296,-0.0286,-0.0278,-0.0267,-0.0268,-0.0256,-0.0274,-0.0279,-0.0301,-0.0313,-0.0324,-0.0358,-0.0365,-0.0381,-0.0398,-0.04,-0.0401,-0.0428,-0.0434,-0.0425,-0.042,-0.0419,-0.0431,-0.0431,-0.0431,-0.0432,0,0,-0.0269,-0.0251,-0.0245,-0.0223,-0.0232,-0.0221,-0.0221,-0.0217,-0.0207,-0.0244,-0.023,-0.0272,-0.03,-0.0308,-0.0339,-0.0363,-0.0374,-0.039,-0.0392,-0.0382,-0.0401,-0.0391,-0.0389,-0.0407,-0.0407,-0.0407,-0.0394,0,-0.022,-0.0161,-0.0175,-0.0125,-0.0094,-0.0129,-0.0116,-0.0128,-0.0151,-0.015,-0.0206,-0.021,-0.027,-0.0275,-0.0311,-0.0355,-0.0373,-0.0373,-0.0412,-0.0412,-0.0403,-0.0389,-0.0369,-0.0355,-0.0394,-0.0394,-0.0394,0,-0.0163,-0.0129,-0.0069,-0.0034,-0.0026,-0.0011,0.0001,0.0008,-0.0018,-0.0037,-0.0071,-0.0116,-0.0153,-0.0211,-0.0282,-0.028,-0.0333,-0.0375,-0.0377,-0.0371,-0.0401,-0.0373,-0.0353,-0.0393,-0.0393,-0.0394,-0.0394,0,-0.01,-0.0052,0.0001,0.001,0.0037,0.005,0.006,0.0045,0.0066,0.0033,0.0041,-0.0027,-0.0041,-0.0132,-0.0226,-0.0256,-0.0296,-0.0351,-0.0386,-0.0385,-0.0376,-0.0374,-0.0398,-0.0398,-0.0398,-0.0398,-0.0398,0,-0.0034,0.0014,0.0034,0.0067,0.0129,0.0117,0.0166,0.0161,0.0166,0.0203,0.0107,0.0121,-0.0025,-0.0074,-0.0181,-0.0264,-0.0262,-0.0366,-0.0382,-0.0366,-0.0364,-0.0408,-0.0409,-0.0398,-0.0398,-0.0398,-0.0398,0,0.0034,0.0047,0.0113,0.0149,0.0164,0.0206,0.0246,0.0284,0.0271,0.0316,0.0312,0.0248,0.0174,0.0044,-0.0081,-0.0183,-0.0279,-0.0308,-0.0263,-0.0275,-0.0365,-0.0366,-0.0356,-0.0356,-0.0355,-0.0355,-0.0355,0,0.0079,0.0121,0.0176,0.0215,0.0232,0.0285,0.0328,0.0338,0.0378,0.0399,0.0434,0.0379,0.0347,0.018,-0.0013,-0.0177,-0.0225,-0.0262,-0.0332,-0.0344,-0.0361,-0.0362,-0.0363,-0.0305,-0.0305,-0.0304,-0.0304,0,0.0165,0.0175,0.0223,0.0299,0.0349,0.0412,0.047,0.0522,0.0541,0.0574,0.0617,0.0598,0.0432,0.0261,0.0037,-0.0083,-0.0243,-0.0257,-0.0275,-0.0321,-0.0296,-0.0313,-0.0316,-0.0299,-0.0299,-0.03,-0.03,-0.03,0.0222,0.0263,0.0314,0.0386,0.0449,0.0529,0.059,0.0647,0.0725,0.0784,0.0763,0.0742,0.054,0.0252,0.004,-0.019,-0.02,-0.029,-0.0292,-0.0294,-0.0292,-0.0269,-0.0264,-0.0264,-0.0264,-0.0265,-0.0265,0,0.0287,0.0327,0.04,0.0478,0.0556,0.0575,0.068,0.0737,0.0829,0.0884,0.0912,0.0745,0.0548,0.0312,-0.0029,-0.0233,-0.0267,-0.0292,-0.03,-0.0302,-0.0304,-0.0305,-0.0279,-0.028,-0.0281,-0.0281,0,0,0.0321,0.0393,0.0423,0.055,0.0611,0.0716,0.078,0.0864,0.0922,0.098,0.0975,0.0938,0.0642,0.0397,0.0114,-0.0086,-0.0146,-0.0121,-0.0085,-0.0062,-0.0062,-0.0276,-0.0275,0,0,0,0,0]}],[{"header":{"parameterUnit":"m.s-1","parameterCategory":2,"la1":30.2991,"la2":30.254,"lo1":-89.0895,"lo2":-89.0444,"dy":0.0017,"dx":0.0017,"nx":28,"ny":28,"refTime":"2024-04-30T03:00:00:Z","depth":"4","parameterNumber":2,"parameterNumberName":"U-component_of_CURRENTS"},"data":[0,0,0,0,0,0,0,0,0,0,0,0,0,0,0,0,0,0,0,0,0,0,0,0,0,0,0,0,0,0,0,0,0,0,0,0,0,0,0,0,0,0,0,0,0,0,0,0,0,0,0,0,0,0,0,0,0,0,0.0795,0.0796,0,0.0843,0.0843,0.0843,0.0897,0.0898,0.0899,0.09,0.0945,0.0945,0.0946,0,0,0,0,0,0,0,0,0,0,0,0,0,0.0743,0.0743,0.0795,0.0796,0.0797,0.0843,0.0843,0.0844,0.0897,0.0899,0.09,0.0901,0.0945,0.0945,0.0946,0,0,0,0,0,0,0,0,0,0,0,0,0,0.0773,0.0744,0.0795,0.0831,0.0835,0.0843,0.0843,0.0844,0.0897,0.0899,0.09,0.0901,0.0945,0.0945,0.0946,0.0918,0,0,0.0947,0.0947,0,0,0,0,0,0,0,0,0.0772,0.0775,0.0825,0.0829,0.0833,0.0868,0.0841,0.0869,0.0897,0.0871,0.09,0.0902,0.0919,0.0922,0.0924,0.092,0.0922,0.0947,0.0947,0.0947,0.0947,0,0,0,0,0,0,0,0.0769,0.0773,0.0812,0.0826,0.0831,0.0842,0.0848,0.0846,0.0884,0.0873,0.0878,0.0886,0.0921,0.0924,0.0926,0.0922,0.0947,0.0947,0.0947,0.0947,0.1045,0.1047,0,0,0,0,0,0,0.0767,0.0771,0.081,0.0814,0.0808,0.0842,0.0848,0.0853,0.0885,0.0891,0.0885,0.0889,0.0922,0.0925,0.0927,0.1003,0.0947,0.0947,0.0948,0.1042,0.1045,0.1048,0,0,0,0,0,0,0.0765,0.077,0.0809,0.0795,0.0802,0.0841,0.0846,0.0853,0.0872,0.0894,0.0901,0.0899,0.0924,0.0927,0.0965,0.1001,0.0948,0.0948,0.104,0.1043,0.1046,0.1084,0,0,0,0,0,0,0.0764,0.0769,0.0782,0.0795,0.0802,0.0831,0.0845,0.0853,0.0875,0.0881,0.0907,0.0913,0.0925,0.0965,0.0966,0.1,0.0948,0.1037,0.1041,0.1045,0.108,0.1089,0.1096,0,0,0,0,0,0.0761,0.0775,0.0782,0.0788,0.0816,0.0832,0.0836,0.0868,0.0875,0.0888,0.0921,0.0913,0.0994,0.0966,0.0967,0.1003,0.1034,0.104,0.1045,0.1077,0.1087,0.1096,0,0,0,0,0,0,0.0758,0.0782,0.0791,0.0811,0.0827,0.0842,0.0864,0.0869,0.09,0.0922,0.0926,0.0934,0.0993,0.0989,0.0957,0.1049,0.1019,0.1024,0.1043,0.1052,0.106,0.1053,0.0949,0,0,0,0,0,0.0761,0.0781,0.0797,0.0814,0.0825,0.084,0.0854,0.0877,0.0901,0.0917,0.0937,0.0972,0.101,0.1023,0.1059,0.1082,0.1087,0.1114,0.1122,0.1128,0.1127,0.1168,0.1179,0.1065,0.1065,0.1065,0,0,0.0763,0.0781,0.0792,0.0816,0.0833,0.0856,0.0853,0.0888,0.0917,0.0916,0.097,0.1001,0.1027,0.1083,0.1106,0.1082,0.1168,0.1135,0.114,0.1135,0.1174,0.1185,0.1195,0.1069,0.1068,0.1067,0,0,0.0774,0.0794,0.0813,0.0832,0.0869,0.0883,0.0892,0.0922,0.0951,0.0998,0.1022,0.1066,0.111,0.1139,0.1156,0.1219,0.1217,0.1244,0.1263,0.1304,0.1313,0.132,0.135,0.136,0.1237,0.1237,0.1237,0,0.0778,0.0804,0.0821,0.0846,0.0871,0.0893,0.0921,0.0947,0.0992,0.1018,0.1033,0.1123,0.1138,0.1193,0.1229,0.1235,0.1258,0.1218,0.1311,0.1319,0.1326,0.1355,0.1365,0.124,0.1239,0.1239,0.1239,0,0.0797,0.0829,0.0843,0.0885,0.091,0.0944,0.0981,0.1018,0.1056,0.1084,0.1162,0.1195,0.1243,0.1264,0.1265,0.133,0.1332,0.1322,0.1278,0.134,0.1366,0.1377,0.1243,0.1242,0.1242,0.1241,0,0,0.0781,0.0844,0.0855,0.0885,0.0942,0.0964,0.102,0.1071,0.1113,0.117,0.1224,0.1289,0.1307,0.1328,0.1341,0.1367,0.1438,0.1369,0.137,0.1382,0.1534,0.1457,0.1461,0.1451,0.1453,0.1455,0.1534,0,0.0796,0.0852,0.0882,0.0942,0.0973,0.1017,0.1062,0.1118,0.1173,0.1233,0.1275,0.1342,0.1331,0.137,0.1396,0.1437,0.1467,0.1418,0.1486,0.1487,0.1398,0.147,0.1461,0.1541,0.1544,0.1545,0.1546,0,0.0807,0.0847,0.0908,0.098,0.0998,0.104,0.1125,0.1171,0.125,0.1298,0.1359,0.1397,0.1454,0.1441,0.152,0.1495,0.1521,0.1539,0.1543,0.146,0.1429,0.1468,0.1565,0.1563,0.1562,0.1561,0.156,0,0.0792,0.0867,0.0922,0.0947,0.1026,0.1069,0.1117,0.1197,0.1249,0.1345,0.14,0.1465,0.1522,0.1559,0.1602,0.1576,0.1688,0.1651,0.1603,0.1598,0.1622,0.1612,0.171,0.171,0.171,0.171,0.1709,0,0.0794,0.084,0.0925,0.0953,0.1024,0.1079,0.116,0.1215,0.1305,0.137,0.1434,0.1496,0.156,0.1627,0.164,0.166,0.1722,0.1619,0.1618,0.1639,0.1631,0.1629,0.1619,0.1713,0.1712,0.1711,0.1711,0,0.0777,0.0829,0.0891,0.0984,0.1019,0.1073,0.118,0.1231,0.1322,0.1412,0.1449,0.155,0.1632,0.1686,0.1761,0.171,0.1735,0.1729,0.1765,0.1762,0.1603,0.1594,0.1663,0.1661,0.166,0.1658,0.1657,0,0.0772,0.0804,0.0908,0.0948,0.0998,0.1083,0.1138,0.1234,0.1287,0.1433,0.1467,0.1589,0.1646,0.1685,0.1742,0.177,0.1749,0.1741,0.1645,0.1609,0.1601,0.1595,0.1588,0.1654,0.1654,0.1654,0.1653,0,0.0759,0.0803,0.0855,0.0937,0.1003,0.1067,0.1152,0.1182,0.1293,0.1389,0.1457,0.1505,0.1598,0.1639,0.1689,0.1698,0.1728,0.1723,0.1725,0.1634,0.1599,0.1591,0.1587,0.1647,0.1648,0.1649,0.1649,0,0.0753,0.0781,0.0849,0.0917,0.0989,0.1028,0.1077,0.1141,0.1201,0.1345,0.1372,0.1492,0.159,0.1606,0.165,0.166,0.1616,0.1538,0.1549,0.1556,0.1483,0.1421,0.1425,0,0,0,0,0,0.0743,0.0766,0.0823,0.0883,0.0947,0.0989,0.1077,0.1122,0.1227,0.1246,0.1302,0.138,0.1443,0.1503,0.1491,0.1602,0.1623,0.158,0.1539,0.1616,0.1622,0.1546,0,0,0,0,0,0,0.0733,0.0783,0.0806,0.0839,0.087,0.0931,0.0979,0.105,0.1059,0.1171,0.1213,0.1298,0.1381,0.1443,0.1467,0.1485,0.1431,0.1654,0.1651,0.1612,0.1618,0.1623,0.1548,0,0,0,0,0]},{"header":{"parameterUnit":"m.s-1","parameterCategory":2,"la1":30.2991,"la2":30.254,"lo1":-89.0895,"lo2":-89.0444,"dy":0.0017,"dx":0.0017,"nx":28,"ny":28,"refTime":"2024-04-30T03:00:00:Z","depth":"4","parameterNumber":3,"parameterNumberName":"V-component_of_CURRENTS"},"data":[0,0,0,0,0,0,0,0,0,0,0,0,0,0,0,0,0,0,0,0,0,0,0,0,0,0,0,0,0,0,0,0,0,0,0,0,0,0,0,0,0,0,0,0,0,0,0,0,0,0,0,0,0,0,0,0,0,0,0.0265,0.0265,0,0.0243,0.0243,0.0243,0.0218,0.0218,0.0217,0.0217,0.0177,0.0176,0.0175,0,0,0,0,0,0,0,0,0,0,0,0,0,0.0262,0.0262,0.0265,0.0265,0.0265,0.0243,0.0243,0.0243,0.0218,0.0218,0.0217,0.0217,0.0177,0.0176,0.0175,0,0,0,0,0,0,0,0,0,0,0,0,0,0.0252,0.0262,0.0265,0.0251,0.0249,0.0244,0.0243,0.0242,0.0218,0.0218,0.0217,0.0217,0.0177,0.0176,0.0175,0.0174,0,0,0.0171,0.017,0,0,0,0,0,0,0,0,0.0253,0.0252,0.0253,0.0252,0.025,0.0234,0.0227,0.0219,0.0218,0.0228,0.0217,0.0217,0.0195,0.0193,0.0187,0.0172,0.017,0.0171,0.017,0.0169,0.0169,0,0,0,0,0,0,0,0.0254,0.0253,0.0255,0.0253,0.0251,0.0238,0.0236,0.0225,0.0213,0.0227,0.0226,0.0226,0.0194,0.0189,0.0186,0.017,0.0171,0.017,0.0169,0.0168,0.0159,0.0159,0,0,0,0,0,0,0.0261,0.0254,0.0255,0.0254,0.0253,0.0239,0.0237,0.0239,0.0213,0.0209,0.0226,0.0225,0.0191,0.0188,0.0185,0.0188,0.0169,0.0168,0.0167,0.0158,0.0159,0.0159,0,0,0,0,0,0,0.0261,0.0262,0.0256,0.0255,0.0253,0.0239,0.0241,0.0238,0.0237,0.0213,0.0208,0.0229,0.0191,0.0187,0.0177,0.0186,0.0168,0.0166,0.0158,0.0158,0.0159,0.0191,0,0,0,0,0,0,0.0261,0.0262,0.0267,0.0255,0.0254,0.0256,0.0242,0.0238,0.0238,0.0236,0.0213,0.0209,0.019,0.0179,0.0176,0.0184,0.0165,0.0157,0.0158,0.0159,0.019,0.0193,0.0196,0,0,0,0,0,0.0261,0.0269,0.0267,0.0268,0.0261,0.0256,0.0254,0.0242,0.0238,0.0239,0.0223,0.021,0.0183,0.0178,0.0174,0.0183,0.0156,0.0158,0.0159,0.0188,0.0192,0.0196,0,0,0,0,0,0,0.0267,0.0267,0.0265,0.0272,0.0267,0.0253,0.0251,0.0248,0.0237,0.0233,0.0213,0.0207,0.0202,0.019,0.0186,0.0184,0.0169,0.0169,0.0193,0.0197,0.02,0.0199,0.0164,0,0,0,0,0,0.0273,0.0281,0.0275,0.028,0.0278,0.0267,0.0265,0.0258,0.0247,0.0241,0.0227,0.0214,0.0204,0.0199,0.0185,0.0184,0.0157,0.0189,0.0192,0.0195,0.0192,0.0161,0.0161,0.0163,0.0163,0.0163,0,0,0.0279,0.0279,0.0284,0.0283,0.0275,0.0275,0.0264,0.0261,0.0264,0.0239,0.0236,0.0222,0.0206,0.0202,0.02,0.0193,0.018,0.0196,0.0199,0.0194,0.0162,0.0162,0.0161,0.0164,0.0164,0.0164,0,0,0.0288,0.0292,0.0297,0.0295,0.0289,0.0283,0.0286,0.0275,0.0273,0.027,0.0254,0.0247,0.0232,0.0222,0.0216,0.0231,0.0197,0.0231,0.0247,0.0218,0.0217,0.0216,0.0178,0.0173,0.0234,0.0235,0.0235,0,0.0293,0.0299,0.0298,0.0298,0.0299,0.029,0.0293,0.0291,0.028,0.028,0.0272,0.0253,0.0241,0.0238,0.0243,0.0238,0.021,0.0233,0.0221,0.0219,0.0217,0.0179,0.0173,0.0236,0.0236,0.0236,0.0236,0,0.0301,0.0307,0.0308,0.0309,0.0312,0.0311,0.031,0.0312,0.031,0.0304,0.03,0.0282,0.0269,0.0271,0.0261,0.0252,0.0231,0.0226,0.0209,0.0219,0.0178,0.0171,0.0239,0.0238,0.0238,0.0237,0,0,0.0303,0.0313,0.0313,0.0318,0.0317,0.032,0.0329,0.0332,0.0338,0.0327,0.0327,0.0318,0.0304,0.0296,0.0285,0.0265,0.0232,0.0243,0.0241,0.0202,0.0155,0.014,0.0131,0.0221,0.0221,0.022,0.0129,0,0.0306,0.0316,0.0321,0.0333,0.0336,0.0339,0.0351,0.0355,0.0351,0.0347,0.0333,0.0326,0.0316,0.0309,0.0288,0.0248,0.0217,0.0257,0.0154,0.015,0.0133,0.0124,0.0217,0.0124,0.0123,0.0122,0.0121,0,0.0306,0.0315,0.0328,0.0349,0.0351,0.0361,0.0376,0.0385,0.0381,0.0376,0.0362,0.0344,0.0321,0.0308,0.0236,0.0259,0.0207,0.0173,0.0168,0.0138,0.0124,0.0113,0.0109,0.011,0.011,0.0111,0.0112,0,0.0305,0.0319,0.0334,0.0338,0.0359,0.0372,0.0384,0.0392,0.0407,0.0389,0.0388,0.0351,0.0333,0.027,0.0204,0.0213,0.0112,0.0115,0.0049,0.0046,0.0072,0.0074,0.005,0.005,0.005,0.005,0.005,0,0.0302,0.0311,0.0336,0.0344,0.0369,0.038,0.0405,0.0411,0.0421,0.0437,0.04,0.0396,0.0322,0.0262,0.0195,0.0099,0.01,0.0042,0.0021,0.0088,0.0093,0.0067,0.007,0.0047,0.0048,0.0048,0.0049,0,0.0292,0.0306,0.0327,0.0358,0.037,0.0388,0.0429,0.0449,0.045,0.0466,0.0462,0.0422,0.0343,0.0257,0.0148,0.0091,0.0001,-0.0037,0.0029,0.0015,-0.0046,-0.004,-0.0121,-0.0122,-0.0123,-0.0124,-0.0125,0,0.0286,0.0295,0.0341,0.0363,0.0377,0.0408,0.0438,0.0461,0.0484,0.0486,0.0494,0.0426,0.0386,0.0221,0.0124,-0.0026,-0.0041,-0.0099,-0.0062,-0.0051,-0.0064,-0.0056,-0.0049,-0.0127,-0.0127,-0.0127,-0.0128,0,0.0278,0.0297,0.0322,0.0371,0.0407,0.0448,0.0488,0.0509,0.0537,0.0536,0.0522,0.0443,0.0345,0.0225,0.0098,-0.0002,-0.0064,-0.0111,-0.0109,-0.0074,-0.0059,-0.0069,-0.006,-0.0131,-0.0131,-0.013,-0.013,0,0.0278,0.0295,0.0338,0.0378,0.0429,0.0479,0.0499,0.053,0.0555,0.0562,0.0552,0.0456,0.04,0.0235,0.0125,0.0016,-0.0003,-0.0032,-0.0034,-0.0031,0.0026,0.006,-0.0001,0,0,0,0,0,0.0275,0.0299,0.0341,0.0395,0.0449,0.0481,0.0533,0.0552,0.0575,0.0575,0.0569,0.0484,0.0325,0.0254,0.0144,0.0095,-0.0033,-0.004,-0.0069,-0.0152,-0.0148,-0.0096,0,0,0,0,0,0,0.0274,0.0312,0.0338,0.0405,0.0445,0.0508,0.0547,0.0564,0.0564,0.0568,0.0488,0.045,0.0294,0.039,0.014,0.0106,0.007,-0.0114,-0.0117,-0.0155,-0.0151,-0.0147,-0.0093,0,0,0,0,0]}]]